The Cajun Classic - inventory

Station: Inventory - T Race

Distance: 10 Miles    

Release: 07-Aug-2017 16:00

Weather Release:    Arrival:

Wind at Release:     Wind at Arrival:

Temp at Release: °    Temp at Arrival: °

Lofts: 45

Birds: 181

Clocked: 121

Good Luck to Everyone!
Drops Pos Breeder Pigeon Name Color Sex Ent Arrival Speed To Win Eligible
2 Aucoin & Rivero Loft - LA 0421-AU17-MET BCWF C 1 16:43:40.70 402.946 00:00:14 Yes
3 John Fukumoto - HI 0388-AU17-HAWN BB C 1 16:43:42.40 402.685 00:00:16 Yes
4 Nanez Family Lofts - WI 4169-AU17-NANE BB C 1 16:43:42.50 402.669 00:00:16 Yes
5 Hollywood Lou Loft - FL 0037-AU17-HLOU BBWF C 1 16:43:42.80 402.623 00:00:16 Yes
8 Clear Springs Loft - FL 17034-AU17-WARD BB C 1 16:43:48.30 401.781 00:00:22 Yes
10 Ed Minvielle - LA 17021-AU17-A BBWF C 1 16:43:50.40 401.460 00:00:24 Yes
11 Clear Springs Loft - FL 17017-AU17-WARD BB H 2 16:43:51.50 401.292 00:00:25 Yes
12 Hollywood Lou Loft - FL 0033-AU17-HLOU BB H 2 16:43:55.40 400.698 00:00:29 Yes
13 Gilbert Wiltz - TX 10941-AU17-AA BCWF C 1 16:43:55.70 400.653 00:00:29 Inj
14 John Fukumoto - HI 0355-AU17-HAWN BB C 2 16:43:57.70 400.349 00:00:31 Yes
16 Nanez Family Lofts - WI 4190-AU17-NANE BB C 2 16:43:59.10 400.136 00:00:32 Yes
17 H H H No 2 - TX 19854-AU17-FOYS BB H 2 16:44:00.20 399.970 00:00:33 Yes
18 Poorshow Loft - LA 22408-AU17-AA SILV C 1 16:44:00.80 399.879 00:00:34 Yes
21 Lyons Loft - TX 1202-AU17-TXHC BB C 1 16:44:06.10 399.078 00:00:39 Yes
22 Bottoms Up Loft - TX 8658-AU17-AA BC C 2 16:44:08.60 398.701 00:00:42 Yes
23 New Orleans Boys 2 - LA 0314-AU17-MET BC H 1 16:44:09.40 398.581 00:00:43 Yes
24 Espo Loft - SC 0955-AU17-ESPO BC C 1 16:44:10.10 398.476 00:00:43 Yes
25 A P C Loft - TX 17141-AU17-APC BBWF H 1 16:44:10.70 398.385 00:00:44 Yes
27 Carroll Hoover - PA 1062-IF17-RLPC BB C 1 16:44:12.20 398.160 00:00:46 Yes
28 B & S Loft 2 - LA 0783-AU17-LAF BCWF H 1 16:44:12.60 398.100 00:00:46 Yes
29 Oaktree - LA 0719-AU17-OAK BC H 1 16:44:13.00 398.040 00:00:46 Yes
31 Clear Springs Loft - FL 17064-AU17-WARD DC C 3 16:44:13.80 397.920 00:00:47 Yes
31 Oaktree - LA 0715-AU17-OAK BC H 2 16:44:13.80 397.920 00:00:47 Yes
33 Pigeon Palace - LA 0364-AU17-LAF BB H 1 16:44:14.30 397.845 00:00:48 Yes
34 Carroll Hoover - PA 1066-IF17-RLPC SIL H 2 16:44:14.70 397.785 00:00:48 Yes
35 A P C Loft - TX 17159-AU17-APC BB H 2 16:44:15.80 397.620 00:00:49 Yes
37 Bottoms Up Loft - TX 8667-AU17-AA BB C 3 16:44:16.40 397.530 00:00:50 Yes
38 Johnson/Mailhes - LA 0185-AU17-LAF BC H 1 16:44:17.40 397.381 00:00:51 Yes
40 Bionic Loft - LA 0664-AU17-CAJU BCWF H 1 16:44:18.30 397.246 00:00:52 Yes
41 Texas Trio 2 - TX 4084-AU17-TEXA BB H 1 16:44:18.40 397.231 00:00:52 Yes
43 Black Magic Loft - TX 0403-AU17-BLAC BB C 2 16:44:18.80 397.172 00:00:52 Yes
44 Poorshow Loft - LA 22422-AU17-AA GRIZ C 3 16:44:19.20 397.112 00:00:53 Yes
45 Bottoms Up Loft - TX 8671-AU17-AA BC H 4 16:44:19.70 397.037 00:00:53 Yes
46 El Dorado Loft - TX 0153-AU17-TEXA BB C 1 16:44:20.90 396.858 00:00:54 Yes
47 Bayou Lofts - LA 0724-AU17-BRFT BC H 1 16:44:21.60 396.754 00:00:55 Yes
49 J & K Of Tx - TX 0421-AU17-PB RC C 1 16:44:22.90 396.560 00:00:56 Yes
52 Nanez Family Lofts - WI 4295-AU17-NANE BB H 3 16:44:23.80 396.426 00:00:57 Yes
54 Toca Ridge Loft - LA 7385-AU17-AA DC H 1 16:44:25.40 396.188 00:00:59 Yes
57 Black Gold Loft - TX 22155-AU17-AA BB C 1 16:44:26.90 395.965 00:01:00 Yes
60 Black Magic Loft - TX 0402-AU17-BLAC BB H 4 16:44:30.40 395.446 00:01:04 Yes
62 Nanez Family Lofts - WI 4175-AU17-NANE BB H 4 16:44:31.50 395.284 00:01:05 Yes
63 Nanez Family Lofts - WI 4180-AU17-NANE DC C 5 16:44:32.10 395.195 00:01:05 Yes
66 Hynes - LA 1357-AU17-SLID BCWF H 3 16:44:39.70 394.074 00:01:13 Yes
67 R & R Loft - LA 0150-AU17-MILL BB C 3 16:44:44.70 393.340 00:01:18 Yes
68 Southern Belle - GA 0012-AU17-NEA DC H 1 16:44:46.00 393.150 00:01:19 Yes
70 Mcconnell Loft - FL 1842-AU17-GHC BC H 1 16:45:24.40 387.608 00:01:58 Yes
71 Lewis Loft - LA 7319-AU17-CENL Coup De Main BC H 2 16:45:40.50 385.331 00:02:14 Yes
73 Texas Trio 2 - TX 4135-AU17-TEXA BB C 2 16:45:54.80 383.331 00:02:28 Yes
74 Ed Minvielle - LA 17014-AU17-A BC C 2 16:45:55.40 383.247 00:02:29 Yes
75 Red Ass Ranch - TX 0133-AU17-RAR BBWF H 1 16:45:57.10 383.011 00:02:30 Yes
76 New Orleans Boys 2 - LA 0510-AU17-DELT BB H 2 16:45:58.00 382.886 00:02:31 Yes
77 Ed Minvielle - LA 17032-AU17-A BB H 3 16:45:59.60 382.664 00:02:33 Yes
78 Ed Minvielle - LA 17040-AU17-A BBWF H 4 16:46:01.50 382.401 00:02:35 Yes
79 Farmers Loft Of La - LA 0726-AU17-FARM BCP H 1 16:46:02.60 382.249 00:02:36 Yes
80 Oaktree - LA 0726-AU17-OAK BCP H 4 16:46:04.40 382.000 00:02:38 Yes
81 J B Loft - LA 0924-AU17-BRFT Pied Piper Ii BBWF C 1 16:46:05.40 381.862 00:02:39 Yes
82 Carroll Hoover - PA 1070-IF17-RLPC BC C 3 16:46:07.40 381.586 00:02:41 Yes
82 Mcconnell Loft - FL 1802-AU17-GHC BBPD H 2 16:46:07.40 381.586 00:02:41 Yes
84 Ganus Family Loft - IN 0751-AU17-GFL BC C 3 16:46:08.90 381.379 00:02:42 Yes
85 Mcconnell Loft - FL 1844-AU17-GHC BB H 3 16:46:09.70 381.269 00:02:43 Yes
86 Ed Minvielle - LA 17041-AU17-A BBWF H 5 16:46:12.90 380.829 00:02:46 Yes
87 Red Ass Ranch - TX 0134-AU17-RAR BBWF C 2 16:46:13.40 380.760 00:02:47 Yes
88 New Orleans Boys 2 - LA 0523-AU17-DELT BBPD C 3 16:46:16.70 380.308 00:02:50 Yes
90 Cajun Express Loft - LA 0811-AU17-CEL BB C 1 16:46:19.90 379.870 00:02:53 Yes
92 Black Magic Loft - TX 0410-AU17-BLAC GRIZ C 5 16:46:21.20 379.692 00:02:55 Yes
93 Vick Corso - LA 1261-AU17-CORS DC H 2 16:46:25.30 379.133 00:02:59 Yes
94 Ed Minvielle - LA 17023-AU17-A BCSP C 6 16:46:27.00 378.902 00:03:00 Yes
95 Tom Cosgriff - NJ 0030-AU17-ARPU BC C 2 16:46:28.90 378.644 00:03:02 Missing
96 Aucoin & Rivero Loft - LA 1627-AU17-AUCO BC H 3 16:46:29.30 378.590 00:03:03 Yes
97 Hynes - LA 1358-AU17-SLID BC C 4 16:46:31.70 378.264 00:03:05 Missing
98 Carroll Hoover - PA 1071-IF17-RLPC BB H 4 16:46:33.80 377.980 00:03:07 Yes
99 Red Ass Ranch - TX 0137-AU17-RAR BB C 3 16:46:34.10 377.939 00:03:07 Yes
105 J B Loft - LA 0923-AU17-BRFT Chief BCWF C 2 16:46:43.90 376.618 00:03:17 Yes
106 El Dorado Loft - TX 0151-AU17-TEXA BC H 2 16:46:45.80 376.363 00:03:19 Yes
107 Pigeon Palace - LA 0320-AU17-LAF BBWF C 3 16:46:46.30 376.296 00:03:20 Yes
108 Redtex - TX 0016-AU17-REDT SILV C 2 16:46:46.90 376.216 00:03:20 Yes
110 Vick Corso - LA 1246-AU17-CORS BC H 3 16:46:48.80 375.961 00:03:22 Yes
111 El Dorado Loft - TX 0152-AU17-TEXA BB C 3 16:46:50.50 375.734 00:03:24 Yes
113 Zero's Loft - NM 3316-AU17-AA BCPD H 1 16:46:52.10 375.520 00:03:25 Yes
114 Aucoin & Rivero Loft - LA 1625-AU17-AUCO BCWF C 4 16:46:52.60 375.453 00:03:26 Yes
114 Texas Trio 2 - TX 4035-AU17-TEXA BBWF C 3 16:46:52.60 375.453 00:03:26 Yes
116 Tom Cosgriff - NJ 0029-AU17-ARPU BC H 3 16:46:53.70 375.307 00:03:27 Yes
116 Black Gold Loft - TX 0820-AU17-BLGO BC C 2 16:46:53.70 375.307 00:03:27 Yes
118 Red Ass Ranch - TX 0135-AU17-RAR BB C 4 16:46:53.80 375.293 00:03:27 Yes
119 New Orleans Boys 2 - LA 0340-AU17-MET BB H 5 16:46:56.10 374.987 00:03:29 Yes
120 Bucktown Loft - LA 1628-AU17-AUCO BB C 1 16:46:58.00 374.734 00:03:31 Yes
122 A P C Loft - TX 17154-AU17-APC BB C 3 16:47:13.50 372.684 00:03:47 Yes
123 Bucktown Loft - LA 1611-AU17-AUCO BB H 2 16:47:14.10 372.605 00:03:47 Yes
124 Black Gold Loft - TX 22119-AU17-AA BB C 3 16:47:14.90 372.500 00:03:48 Yes
125 Pigeon Palace - LA 0369-AU17-LAF BB H 4 16:47:16.10 372.342 00:03:49 Yes
126 Toca Ridge Loft - LA 7384-AU17-AA GRIZ C 2 16:47:16.80 372.250 00:03:50 Missing
128 Farmers Loft Of La - LA 0733-AU17-FARM BBP H 2 16:47:20.20 371.805 00:03:53 Yes
129 Bottoms Up Loft - TX 8657-AU17-AA BBP C 6 16:47:20.80 371.726 00:03:54 Yes
130 Red Ass Ranch - TX 0132-AU17-RAR BBWF H 5 16:47:21.30 371.661 00:03:55 Yes
131 Texas Trio 2 - TX 1018-AU17-VPR BB H 4 16:47:26.40 370.995 00:04:00 Yes
132 Ganus Family Loft - IN 0362-AU17-GFL BB C 4 16:47:26.50 370.982 00:04:00 Yes
133 Lyons Loft - TX 1204-AU17-TXHC BB H 3 16:47:31.30 370.357 00:04:05 Yes
134 New Orleans Boys 2 - LA 0307-AU17-MET BB C 6 16:47:32.00 370.266 00:04:05 Yes
137 Espo Loft - SC 0957-AU17-ESPO BC H 2 16:47:35.90 369.761 00:04:09 Yes
138 Pigeon Palace - LA 0350-AU17-LAF BB C 5 16:47:36.20 369.722 00:04:10 Yes

There are 118 bird records

Note: These Race Results are unofficial and subject to change until verified by the Race Committee and declared final.